TimeCST,TemperatureF,Dew PointF,Humidity,Sea Level PressureIn,VisibilityMPH,Wind Direction,Wind SpeedMPH,Gust SpeedMPH,PrecipitationIn,Events,Conditions,WindDirDegrees,DateUTC
12:55 AM,48.2,41.0,76,30.00,10.0,SSW,11.5,19.6,N/A,,Clear,200,2011-11-25 06:55:00
1:55 AM,46.9,41.0,80,30.00,10.0,SSW,13.8,21.9,N/A,,Clear,200,2011-11-25 07:55:00
2:55 AM,46.0,41.0,83,30.00,10.0,South,13.8,-,N/A,,Clear,190,2011-11-25 08:55:00
3:55 AM,46.4,41.0,81,29.96,10.0,South,16.1,24.2,N/A,,Clear,190,2011-11-25 09:55:00
4:55 AM,45.0,39.9,82,29.96,10.0,SSW,11.5,20.7,N/A,,Clear,200,2011-11-25 10:55:00
5:55 AM,45.0,39.0,80,29.96,10.0,SSW,12.7,19.6,N/A,,Clear,200,2011-11-25 11:55:00
6:55 AM,44.1,39.0,82,29.96,10.0,SSW,13.8,-,N/A,,Clear,200,2011-11-25 12:55:00
7:55 AM,45.0,39.9,82,29.96,10.0,SSW,12.7,-,N/A,,Clear,210,2011-11-25 13:55:00
8:31 AM,46.4,39.2,76,29.94,10.0,SSW,16.1,26.5,N/A,,Mostly Cloudy,210,2011-11-25 14:31:00
8:55 AM,46.0,39.9,79,29.95,10.0,SSW,15.0,24.2,N/A,,Overcast,210,2011-11-25 14:55:00
9:55 AM,48.0,42.1,80,29.94,10.0,SW,12.7,21.9,N/A,,Overcast,220,2011-11-25 15:55:00
10:55 AM,50.0,43.0,77,29.94,10.0,SSW,17.3,24.2,N/A,,Overcast,210,2011-11-25 16:55:00
11:55 AM,51.1,44.1,77,29.91,9.0,SW,12.7,25.3,N/A,,Overcast,220,2011-11-25 17:55:00
12:55 PM,53.1,45.0,74,29.89,9.0,SSW,15.0,23.0,N/A,,Overcast,210,2011-11-25 18:55:00
1:55 PM,54.0,46.0,75,29.87,9.0,SSW,6.9,-,N/A,,Overcast,210,2011-11-25 19:55:00
2:26 PM,55.4,46.4,72,29.84,10.0,SW,6.9,-,N/A,,Overcast,220,2011-11-25 20:26:00
2:55 PM,57.2,46.4,67,29.82,10.0,SSW,9.2,-,N/A,,Mostly Cloudy,210,2011-11-25 20:55:00
3:55 PM,57.9,46.9,67,29.82,10.0,South,8.1,-,N/A,,Clear,190,2011-11-25 21:55:00
4:55 PM,57.9,46.9,67,29.81,10.0,SSW,13.8,20.7,N/A,,Clear,200,2011-11-25 22:55:00
5:55 PM,57.2,46.4,67,29.81,10.0,SSW,11.5,-,N/A,,Clear,200,2011-11-25 23:55:00
6:55 PM,55.9,45.0,67,29.83,10.0,SSW,9.2,-,N/A,,Clear,200,2011-11-26 00:55:00
7:55 PM,55.4,42.8,63,29.81,10.0,SSW,10.4,-,N/A,,Mostly Cloudy,200,2011-11-26 01:55:00
8:55 PM,55.0,43.0,64,29.84,10.0,SSW,10.4,-,N/A,,Overcast,200,2011-11-26 02:55:00
9:55 PM,55.4,42.8,63,29.83,10.0,SSW,16.1,23.0,N/A,,Mostly Cloudy,210,2011-11-26 03:55:00
10:21 PM,55.4,42.8,63,29.83,10.0,SSW,12.7,21.9,N/A,,Overcast,210,2011-11-26 04:21:00
10:55 PM,55.0,45.0,69,29.83,10.0,SSW,13.8,23.0,N/A,,Overcast,210,2011-11-26 04:55:00
11:55 PM,55.0,43.0,64,29.84,10.0,South,11.5,-,N/A,,Overcast,190,2011-11-26 05:55:00